Location: Pine Mountain Observatory
(43.7910°N, 120.9377°W)
Time: 16:52:40
(UTC-07:00)

Explorer 11/Cluster Stage 4 - Pass Details

Date: 31 May 2019
Orbit: 467 x 1260 km, 28.8° (Epoch: 26 June)

Event Time Altitude Azimuth Distance (km) Brightness Sun altitude
Rises 03:41:42 0° 250° (WSW) 3,825 - -14.7°
Reaches altitude 10° 03:45:37 10° 232° (SW) 2,708 - -14.3°
Exits shadow 03:49:19 17° 197° (SSW) 2,073 8.2 -13.9°
Maximum altitude 03:49:37 17° 194° (SSW) 2,056 8.2 -13.8°
Drops below altitude 10° 03:53:11 10° 154° (SSE) 2,343 8.8 -13.4°
Sets 03:56:14 0° 134° (SE) 3,108 9.6 -13.1°
